Voltar ao catálogo

STARLINK-5712

AtivoComunicaçõesVLEO
NORAD 55615·PAYLOAD·🇺🇸 United States

Lançado Feb 12, 2023 de Cape Canaveral Space Force Station

Loading…

Próximas Passagens (próximas 24 horas)

TLE

AtualizadoSource: CelesTrak SupGP

Época: Sep 15, 2026, 02:58 UTC

1 55615C 23020AY  26258.12409722  .00011905  00000+0  43133-3 0  2589
2 55615  43.0019   4.0888 0001518 258.1161 135.0696 15.27563461    19

Acompanhe STARLINK-5712 em tempo real com AllMySat

Download on the App Store